Regional Weather Roundup
Issued by NWS

Home | Current Version | Previous Version | Text Only | Print | Product List | Glossary On
Versions: 1 2 3 4 5 6 7 8 9 10 11 12 13 14 15 16 17 18 19 20 21 22 23 24 25 26 27 28 29 30 31 32 33 34 35 36 37 38 39 40 41 42 43 44 45 46 47 48 49 50
000
ASUS44 KBMX 040610
RWRAL

ALABAMA REGIONAL WEATHER ROUNDUP
NATIONAL WEATHER SERVICE BIRMINGHAM AL
100 AM CDT SAT JUL 04 2015

NOTE: "FAIR" INDICATES FEW OR NO CLOUDS BELOW 12,000 FEET
WITH NO SIGNIFICANT WEATHER AND/OR OBSTRUCTIONS TO VISIBILITY.

THE REMARK "TC" DENOTES TEMPERATURE IN DEGREES CELSIUS.

ALZ001>011-014-016>018-020-040700-
NORTH ALABAMA

CITY           SKY/WX    TMP DP  RH WIND       PRES   REMARKS
MUSCLE SHOALS  CLOUDY    70  66  87 SW8       29.97S
6HR MIN TEMP:  70; 6HR MAX TEMP:  73; 6HR PCP:  0.02;

HUNTSVILLE     CLOUDY    72  65  78 SW12      29.96F
6HR MIN TEMP:  71; 6HR MAX TEMP:  74; 6HR PCP: TRACE;

DECATUR        CLOUDY    71  66  84 S13       29.96F
6HR MIN TEMP:  71; 6HR MAX TEMP:  72;

HALEYVILLE     HVY RAIN  66  66 100 SW5       30.01F FOG
6HR MIN TEMP:  66; 6HR MAX TEMP:  71; 6HR PCP:  0.36;

GADSDEN        CLOUDY    81  64  57 SW3       29.99F
6HR MIN TEMP:  79; 6HR MAX TEMP:  82;

$$

ALZ012-013-022-023-030>036-040>044-040700-
WEST CENTRAL ALABAMA

CITY           SKY/WX    TMP DP  RH WIND       PRES   REMARKS
TUSCALOOSA     CLOUDY    72  70  93 S5        30.00S
6HR MIN TEMP:  72; 6HR MAX TEMP:  77; 6HR PCP:  0.05;

$$

ALZ015-024>027-033>036-040>044-040700-
CENTRAL ALABAMA

CITY           SKY/WX    TMP DP  RH WIND       PRES   REMARKS
BIRMINGHAM     CLOUDY    71  70  96 S6        30.03F
6HR MIN TEMP:  71; 6HR MAX TEMP:  78; 6HR PCP:  0.05;

MONTGOMERY     RAIN      72  68  87 NW10G25   30.07R FOG
6HR MIN TEMP:  71; 6HR MAX TEMP:  86; 6HR PCP:  1.04;

SHELBY CO ARPT CLOUDY    70  69  97 S6        30.02S
6HR MIN TEMP:  69; 6HR MAX TEMP:  73; 6HR PCP:  0.50;

MAXWELL AFB    LGT RAIN  72  68  88 NW5       30.05F
6HR MIN TEMP:  71; 6HR MAX TEMP:  84; 6HR PCP:  0.17;

GREENVILLE     FAIR      78  73  84 SW7       30.04S
6HR MIN TEMP:  78; 6HR MAX TEMP:  85; 6HR PCP:  0.02;

$$

ALZ019-021-028-029-037-038-045>048-040700-
EAST CENTRAL ALABAMA

CITY           SKY/WX    TMP DP  RH WIND       PRES   REMARKS
ANNISTON       RAIN      71  68  90 VRB5      30.04F FOG
6HR MIN TEMP:  71; 6HR MAX TEMP:  76; 6HR PCP:  0.06;

ALEXANDER CITY TSTM      67  63  88 CALM      30.07F
6HR MIN TEMP:  67; 6HR MAX TEMP:  79; 6HR PCP:  0.44;

AUBURN         CLOUDY   N/A N/A N/A NW14G30   30.09R
6HR MIN TEMP:  70; 6HR MAX TEMP:  81; 6HR PCP:  0.60;

$$

ALZ051>064-040700-
SOUTHWEST ALABAMA

CITY           SKY/WX    TMP DP  RH WIND       PRES   REMARKS
MOBILE         PTCLDY    79  76  90 SW6       30.05S
6HR MIN TEMP:  78; 6HR MAX TEMP:  84;

BROOKLEY FIELD PTCLDY    80  76  87 S3        30.05F
6HR MIN TEMP:  80; 6HR MAX TEMP:  86;

EVERGREEN      PTCLDY    78  75  90 S7        30.05S
6HR MIN TEMP:  78; 6HR MAX TEMP:  87;

$$

ALZ049-050-065>069-040700-
SOUTHEAST ALABAMA

CITY           SKY/WX    TMP DP  RH WIND       PRES   REMARKS
DOTHAN         CLEAR     76  75  97 SW6         N/A
                                      6HR PCP: TRACE;

OZARK          CLEAR     76  75  97 SW6       30.06R
6HR MIN TEMP:  76; 6HR MAX TEMP:  85;

TROY           MOCLDY    77  74  90 SW5       30.06S
6HR MIN TEMP:  77; 6HR MAX TEMP:  85;

EUFAULA        FAIR      77  72  84 CALM      30.04S
6HR MIN TEMP:  75; 6HR MAX TEMP:  85;

$$



USA.gov is the U.S. government's official web portal to all federal, state and local government web resources and services.